ONEWEB-0690, 61598

Orbit data source: Space-Track

ONEWEB-0690, 61598 is a payload satellite owned by Eut. One Web (UK) in LEO that was launched on Sun, 20 Oct 2024 UTC via an FALCON 9 launch vehicle from the Air Force Western Test Range (AFWTR). Payload-class satellites include a variety of spacecraft equipped with specific instruments for various scientific and technological missions. These include communications satellites like Starlink; space stations such as the ISS; scientific satellites like the Hubble; Earth observation satellites from companies like Planet Labs, Umbra, and HawkEye 360; GPS; miniature CubeSats for education and research; and military/defense satellites.

Loading next visibility...
Identifier
61598, 2024-188E
Orbit
LEO
Country
Flag of UKUK
Related business
Manufacturer
One Web
Mission
Operational Commercial Communications
Bus & Motor
ARROW, Unknown motor
Mass
148 kg wet, ~140 kg dry
Launch date (UTC)
2024-10-20 (2 years ago)
Launch vehicle
FALCON 9
Launch site
Air Force Western Test Range (AFWTR)
Object type
Payload
Rocket body
Debris
Shape & HBR
Trap Box + 2 Pan, 6.7 m
Radar Cross Section
3.464 m², Large (>1 m²)

Expand to show TLE details & history
Last TLE update: 7 hours ago

TLE from 7 hours ago
0 ONEWEB-0690
1 61598U 24188E   26125.77996733  .00000060  00000-0  13385-3 0  9998
2 61598  87.8933  29.4928 0002372  69.4106 290.7276 13.11417722 79078
Epoch: 2026-05-05T18:43Z
TLE epoch observation values (Epoch: 2026-05-05T18:43:09.177Z)
Latitude
-0.00004°
Longitude
-114.94534°
Altitude
1,219.931 km
Speed
7.245 km/s
True Right ascension
01h 57m 58s
True Declination
0° 00' 00"
Sunlit
Object was in daylight at epoch
Visualization orbit readout
Latitude
Unknown
Longitude
Unknown
Altitude
Unknown
Speed
Unknown
Apparent Right ascension
Unknown
Apparent Declination
Unknown
Sunlit
N/A
Visualization observer readout
Local Sidereal Time
09:53:42
Azimuth
Unknown
Elevation
Unknown
Doppler factor
Unknown
Orbital elements
Apogee altitude
1,216.599 km
Perigee altitude
1,212.997 km
Semi-major axis
7,592.935 km
Eccentricity
0.00024
Inclination
87.8933°
RAAN
29.4928°
Arg. of periapsis
69.4106°
True anomaly
290.70218°
Mean anomaly
290.7276°
Eccentric anomaly
290.71489°
Mean motion
3.28041 °/min
Orbital period
109.74 mins
BSTAR
0.00013385
Loading maneuver chart data...
Computing Atmospheric mass density...
Loading historical data...
Loading historical data...
Loading historical data...
Loading historical data...
Loading historical data...
Loading historical data...
Loading historical data...

Documentation

Showing up to 5 results
|